Perpignan, France

2:52 PM CEST on July 27, 2017 (GMT +0200)
Rivesaltes

Weather History for LFMP - October, 2013

Change the Weather History Date:

Tuesday, October 8, 2013

  Actual Average Record
Temperature  
Mean Temperature 64 °F -  
Max Temperature 75 °F 65 °F 82 °F (2012)
Min Temperature 53 °F 51 °F 35 °F (1998)
Degree Days  
Heating Degree Days 1    
Growing Degree Days 14 (Base 50)    
Moisture  
Dew Point 50 °F    
Average Humidity 59    
Maximum Humidity 88    
Minimum Humidity 29    
Precipitation  
Precipitation 0.00 in 0.11 in - ()
Sea Level Pressure  
Sea Level Pressure 30.18 in    
Wind  
Wind Speed 6 mph ()    
Max Wind Speed 12 mph    
Max Gust Speed -    
Visibility 6.4 miles    
Events      
Averages and records for this station are not official NWS values.
T = Trace of Precipitation, MM = Missing Value Source: Averaged Metar Reports

Daily Weather History Graph

Daily Weather History Graph

Search for Another Location

Airport or City:

Trip Planner

Search our weather history database for the weather conditions in past years. The results will help you decide how hot, cold, wet, or windy it might be!

Date:

Astronomy

Oct. 08, 2013 Rise Set
Actual Time 7:53 AM CEST 7:17 PM CEST
Civil Twilight 7:25 AM CEST 7:45 PM CEST
Nautical Twilight 6:52 AM CEST 8:18 PM CEST
Astronomical Twilight 6:19 AM CEST 8:51 PM CEST
Moon 11:36 AM CEST (10/8) 9:35 PM CEST (10/8)
Length of Visible Light 12h 20m
Length of Day
11h 24m
Waxing Crescent, 14% of the Moon is Illuminated
Oct 8
Waxing Crescent
Oct 12
First Quarter
Oct 19
Full
Oct 27
Last Quarter
Nov 3
New

Hourly Weather History & Observations

Time (CEST) Temp. Dew Point Humidity Pressure Visibility Wind Dir Wind Speed Gust Speed Precip Events Conditions
12:00 AM 62.6 °F 50.0 °F 63% 30.18 in 6.2 mi West 9.2 mph - N/A   Unknown
12:30 AM 60.8 °F 50.0 °F 68% 30.18 in 6.2 mi West 10.4 mph - N/A   Unknown
1:00 AM 60.8 °F 50.0 °F 68% 30.18 in 6.2 mi West 10.4 mph - N/A   Unknown
1:30 AM 60.8 °F 50.0 °F 68% 30.18 in 6.2 mi West 9.2 mph - N/A   Unknown
2:00 AM 58 °F 50 °F 68% 30.21 in 37 mi West 4.6 mph - -   Clear
2:00 AM 59.0 °F 50.0 °F 72% 30.18 in 6.2 mi West 4.6 mph - N/A   Unknown
2:30 AM 57.2 °F 50.0 °F 77% 30.18 in 6.2 mi Calm Calm - N/A   Unknown
3:00 AM 57.2 °F 50.0 °F 77% 30.21 in 6.2 mi Calm Calm - N/A   Unknown
3:30 AM 57.2 °F 50.0 °F 77% 30.18 in 6.2 mi SSW 3.5 mph - N/A   Unknown
4:00 AM 55.4 °F 50.0 °F 82% 30.18 in 6.2 mi Calm Calm - N/A   Unknown
4:30 AM 55.4 °F 50.0 °F 82% 30.18 in 6.2 mi SSW 3.5 mph - N/A   Unknown
5:00 AM 55.4 °F 50.0 °F 82% 30.18 in 6.2 mi Variable 3.5 mph - N/A   Unknown
5:30 AM 55.4 °F 50.0 °F 82% 30.18 in 6.2 mi SW 4.6 mph - N/A   Unknown
6:00 AM 53.6 °F 50.0 °F 88% 30.18 in 6.2 mi Variable 3.5 mph - N/A   Unknown
6:30 AM 53.6 °F 50.0 °F 88% 30.18 in 6.2 mi West 4.6 mph - N/A   Unknown
7:00 AM 57.2 °F 51.8 °F 82% 30.18 in - NW 4.6 mph - N/A   Clear
7:24 AM 59.0 °F 50.0 °F 72% 30.18 in - WNW 5.8 mph - N/A   Clear
8:00 AM 61 °F 50 °F 58% 30.19 in 16 mi WNW 5.8 mph - -   Scattered Clouds
8:00 AM 60.8 °F 50.0 °F 68% 30.18 in 6.2 mi WNW 6.9 mph - N/A   Partly Cloudy
8:36 AM 60.8 °F 50.0 °F 68% 30.18 in 6.2 mi WNW 4.6 mph - N/A   Partly Cloudy
9:00 AM 62.6 °F 50.0 °F 63% 30.18 in 6.2 mi West 8.1 mph - N/A   Partly Cloudy
9:24 AM 64.4 °F 50.0 °F 59% 30.18 in 6.2 mi West 5.8 mph - N/A   Partly Cloudy
10:00 AM 66.2 °F 50.0 °F 56% 30.18 in 6.2 mi West 5.8 mph - N/A   Partly Cloudy
10:30 AM 68.0 °F 51.8 °F 56% 30.18 in 6.2 mi West 5.8 mph - N/A   Partly Cloudy
11:00 AM 69.8 °F 50.0 °F 49% 30.21 in 6.2 mi NW 8.1 mph - N/A   Partly Cloudy
11:30 AM 69.8 °F 50.0 °F 49% 30.21 in 6.2 mi NW 8.1 mph - N/A   Partly Cloudy
12:00 PM 71.6 °F 50.0 °F 46% 30.18 in 6.2 mi NNW 10.4 mph - N/A   Partly Cloudy
12:23 PM 71.6 °F 50.0 °F 46% 30.18 in 6.2 mi NNW 9.2 mph - N/A   Partly Cloudy
12:52 PM 73.4 °F 50.0 °F 44% 30.18 in 6.2 mi WNW 8.1 mph - N/A   Partly Cloudy
2:00 PM 74 °F 48 °F 29% 30.17 in 28 mi North 5.8 mph - -   Scattered Clouds
2:00 PM 73.4 °F 48.2 °F 41% 30.18 in 6.2 mi NW 6.9 mph - N/A   Partly Cloudy
2:35 PM 73.4 °F 48.2 °F 41% 30.15 in 6.2 mi NNW 5.8 mph - N/A   Partly Cloudy
3:00 PM 75.2 °F 50.0 °F 41% 30.15 in 6.2 mi NW 8.1 mph - N/A   Partly Cloudy
3:30 PM 73.4 °F 48.2 °F 41% 30.15 in 6.2 mi NW 8.1 mph - N/A   Partly Cloudy
4:00 PM 75.2 °F 48.2 °F 38% 30.15 in 6.2 mi NNW 10.4 mph - N/A   Partly Cloudy
4:30 PM 75.2 °F 48.2 °F 38% 30.15 in 6.2 mi NW 9.2 mph - N/A   Partly Cloudy
5:00 PM 75.2 °F 48.2 °F 38% 30.15 in 6.2 mi NW 9.2 mph - N/A   Partly Cloudy
5:30 PM 73.4 °F 50.0 °F 44% 30.15 in 6.2 mi NNW 11.5 mph - N/A   Partly Cloudy
6:00 PM 73.4 °F 50.0 °F 44% 30.15 in 6.2 mi NNW 10.4 mph - N/A   Partly Cloudy
7:00 PM 69.8 °F 50.0 °F 49% 30.18 in 6.2 mi North 8.1 mph - N/A   Partly Cloudy
7:30 PM 69.8 °F 50.0 °F 49% 30.18 in 6.2 mi NNW 8.1 mph - N/A   Overcast
8:00 PM 68 °F 50 °F 41% 30.20 in 37 mi NNW 6.9 mph - -   Clear
8:00 PM 68.0 °F 50.0 °F 52% 30.18 in 6.2 mi NNW 6.9 mph - N/A   Mostly Cloudy
8:30 PM 66.2 °F 50.0 °F 56% 30.18 in 6.2 mi NNW 5.8 mph - N/A   Scattered Clouds
9:00 PM 66.2 °F 50.0 °F 56% 30.21 in 6.2 mi Variable 3.5 mph - N/A   Scattered Clouds
9:30 PM 66.2 °F 51.8 °F 60% 30.21 in 6.2 mi WNW 6.9 mph - N/A   Mostly Cloudy
10:00 PM 66.2 °F 50.0 °F 56% 30.21 in 6.2 mi NNW 11.5 mph - N/A   Mostly Cloudy
10:30 PM 66.2 °F 51.8 °F 60% 30.21 in 6.2 mi NNW 11.5 mph - N/A   Scattered Clouds
11:00 PM 66.2 °F 51.8 °F 60% 30.21 in 6.2 mi NNW 9.2 mph - N/A   Partly Cloudy
11:30 PM 64.4 °F 51.8 °F 64% 30.21 in 6.2 mi NNW 9.2 mph - N/A   Unknown